Wind_Speed
44 44 45 45 42 38 37 35 31 30 30 29 29 27 26 27 27 26 26 26 26 25 24 23 22 20 19 18 16 15 13 11 9 6 4 3 2 2 1 1 2 2 2 3 3
45 45 45 44 45 43 39 35 36 33 31 30 30 29 29 29 27 26 25 25 25 25 25 25 25 23 22 21 18 16 16 13 11 9 6 5 3 1 2 2 2 2 3 4 4
46 46 46 46 45 44 42 40 38 36 33 31 30 29 30 29 28 28 27 26 25 24 25 26 26 26 26 25 22 20 18 15 14 12 10 8 7 5 4 4 4 2 4 5 6
47 47 48 48 46 45 44 43 41 38 35 33 31 30 28 29 30 30 29 28 26 25 24 25 27 27 28 27 24 22 21 18 17 15 13 12 11 9 10 6 7 7 6 5 6
48 48 48 49 48 46 45 44 42 40 37 35 33 30 29 30 31 29 29 28 27 26 25 25 27 28 29 27 26 24 24 21 20 19 17 15 15 11 15 8 9 9 7 5 5
47 50 50 50 49 48 47 47 45 43 41 37 35 33 32 32 32 31 31 30 29 29 28 27 27 29 29 28 27 25 26 24 22 21 20 18 17 15 18 11 13 11 10 7 6
41 48 52 52 52 51 49 48 48 46 43 40 38 36 35 33 33 32 32 31 31 30 30 30 30 30 29 29 27 27 27 26 24 23 21 21 18 18 17 14 13 12 10 9 9
44 44 49 53 54 53 52 51 50 48 46 44 41 39 37 36 34 34 33 33 33 32 32 31 32 32 30 28 28 28 29 27 25 25 22 23 18 22 18 14 13 11 10 11 11
47 46 44 50 54 55 54 53 52 51 49 48 45 42 41 38 36 35 35 35 34 33 32 33 33 33 31 31 30 30 29 28 27 27 25 24 20 22 18 13 12 12 13 14 14
46 50 49 45 51 53 57 56 55 54 52 50 48 46 44 41 38 38 37 37 36 35 34 34 34 34 33 32 29 34 32 30 30 28 27 25 20 23 20 16 13 13 13 14 16
49 53 53 47 47 45 49 52 55 55 55 52 51 49 46 44 41 40 39 39 39 38 37 37 36 35 31 34 36 34 33 31 31 30 30 27 24 24 23 17 17 16 16 16 18
46 49 48 51 45 41 42 45 50 52 53 54 54 52 50 46 45 44 41 40 41 40 39 38 38 35 36 35 37 36 34 32 34 35 33 32 26 27 26 22 21 20 19 21 21
46 47 47 47 44 42 44 41 43 46 51 53 54 54 52 50 48 46 43 42 41 43 42 41 40 37 37 39 39 36 35 34 37 38 38 35 31 31 28 25 26 22 23 24 25
41 44 46 47 45 42 41 50 48 44 47 51 53 53 53 52 51 48 47 44 43 43 45 45 44 40 40 41 41 40 40 39 41 42 41 38 42 34 30 29 28 26 29 27 27
34 42 42 42 44 42 43 41 46 49 47 48 48 50 50 52 51 50 48 47 45 44 45 45 45 42 42 42 43 45 43 43 43 44 45 43 47 37 33 32 28 31 32 32 32
49 54 45 49 45 43 45 40 45 48 52 51 48 48 48 50 51 48 48 49 48 46 46 47 47 46 46 44 45 47 48 47 47 47 49 47 49 47 36 36 31 34 33 34 35
56 53 53 47 49 48 39 43 49 48 42 48 47 47 47 46 47 48 47 49 49 48 49 49 49 47 46 46 46 48 49 49 50 52 50 52 52 50 47 39 37 36 37 36 37
60 59 58 54 51 49 46 38 53 48 46 44 44 45 45 47 47 46 45 50 50 51 52 51 53 51 48 47 46 46 46 48 52 54 54 57 53 48 51 45 43 41 41 41 42
64 64 62 59 55 52 57 60 46 50 53 54 54 51 49 48 49 49 50 50 48 51 51 51 54 53 51 49 50 52 53 49 52 55 59 59 53 52 52 50 50 44 44 47 47
60 65 63 63 62 61 62 64 58 58 55 55 57 57 54 54 47 54 56 49 50 46 47 50 55 55 54 52 52 53 53 56 57 59 61 60 58 55 54 54 51 52 50 50 50
47 54 59 61 63 65 66 64 66 61 63 60 59 61 58 59 42 43 47 53 56 53 51 49 54 57 57 58 56 55 57 58 59 60 62 61 61 56 55 56 54 54 57 56 56
42 46 48 54 59 64 66 64 64 62 60 58 57 57 60 57 54 41 45 47 48 51 56 57 61 59 57 59 57 57 55 58 62 61 63 62 61 54 55 56 57 57 57 57 58
45 45 46 49 54 60 61 65 67 65 62 64 61 60 60 62 57 57 54 51 49 42 46 46 50 55 60 66 64 60 58 58 59 60 64 64 59 51 56 57 57 56 57 59 59
51 51 50 50 51 53 54 56 61 65 63 64 65 66 66 66 65 64 59 61 59 57 55 50 49 52 56 53 59 65 67 63 61 62 62 64 59 53 57 59 57 57 58 61 62
61 58 55 53 49 48 51 53 54 57 58 59 65 68 67 65 67 69 67 66 65 61 62 63 59 57 58 60 58 57 55 54 60 65 69 67 62 63 58 57 58 59 59 57 59
68 64 61 59 56 56 54 50 48 49 53 54 56 56 59 64 66 65 69 72 70 70 69 68 70 66 61 60 61 63 60 58 58 58 62 65 68 57 58 58 57 60 62 64 65
75 71 69 66 65 65 59 54 53 54 53 51 52 54 57 57 60 62 66 69 70 67 67 70 72 74 77 76 78 81 66 65 64 63 63 66 60 55 56 56 54 53 57 63 63
Wind_Direction
202 201 198 200 200 200 202 203 201 202 201 199 201 199 199 204 206 207 210 212 213 215 211 216 216 210 205 202 196 196 197 201 206 207 195 199 144 152 190 315 7 3 339 295 304
206 204 204 201 201 203 206 204 208 206 204 203 204 203 205 208 208 211 211 215 217 218 217 220 220 218 212 211 206 206 209 210 218 224 229 247 248 223 250 280 317 335 321 296 282
210 208 208 207 205 207 207 209 208 207 207 207 207 207 208 212 214 217 217 219 219 220 221 223 223 220 219 216 211 213 218 219 226 233 237 250 260 267 263 257 254 285 304 309 305
212 211 209 210 209 210 210 212 212 210 209 210 212 212 214 215 217 218 219 221 221 224 224 226 225 224 222 220 217 217 224 224 233 239 244 252 261 267 273 267 258 264 276 298 307
213 213 213 213 212 213 214 215 215 217 214 214 217 217 218 219 221 219 222 223 224 226 228 228 228 226 224 221 220 221 227 229 236 243 248 254 260 264 271 275 264 262 274 286 288
215 214 215 215 215 215 215 218 220 218 219 220 220 221 224 225 223 221 222 224 225 228 228 229 229 227 225 223 223 225 229 232 237 242 249 255 259 266 266 266 261 266 272 264 258
220 218 215 216 217 217 218 219 220 222 223 223 223 225 227 228 227 225 225 226 228 228 230 230 231 229 225 223 224 227 231 235 239 244 247 253 259 262 267 258 259 261 257 261 266
221 219 219 217 218 218 220 221 222 223 224 227 227 227 229 230 229 229 228 229 230 230 230 232 231 230 227 227 225 229 233 236 240 245 245 251 252 259 258 258 253 250 253 259 272
224 220 220 219 218 219 220 222 224 226 227 228 229 229 229 231 232 232 232 232 231 233 233 233 231 231 228 229 229 232 235 238 240 244 245 250 250 251 251 254 249 252 257 263 272
225 223 223 222 221 221 220 222 224 226 229 230 231 232 231 232 235 236 234 234 234 233 234 233 232 230 230 230 234 235 238 239 242 241 245 248 239 248 249 248 251 254 263 269 274
224 231 223 224 219 221 226 225 225 226 228 231 233 233 234 234 234 237 236 235 236 236 235 236 233 232 232 231 234 238 238 239 243 243 245 245 238 246 249 246 255 261 268 273 274
223 224 229 219 222 218 222 227 229 230 229 230 231 233 234 234 235 236 237 237 237 238 239 238 237 234 234 235 238 240 240 240 244 246 247 246 240 242 249 250 254 262 270 271 276
228 226 229 231 228 232 221 222 227 230 232 231 232 232 232 234 236 237 238 238 239 239 238 239 240 238 237 238 239 240 241 242 244 247 251 249 243 244 245 254 259 261 267 273 275
232 232 235 238 236 230 229 227 234 234 233 232 232 232 232 234 236 238 240 240 241 240 240 240 241 239 238 241 243 241 241 242 244 248 250 252 256 238 244 250 260 266 270 272 275
224 227 228 234 231 230 231 236 236 226 231 230 230 231 233 235 237 237 239 240 240 241 241 244 243 241 241 241 242 244 244 244 245 248 251 253 258 253 247 251 256 263 267 272 276
218 220 227 233 233 237 231 234 239 227 226 230 227 230 231 232 234 234 238 239 241 241 241 243 243 243 241 242 242 245 246 246 246 247 250 253 256 258 254 256 258 261 264 270 273
226 216 220 224 225 231 228 234 238 227 230 233 231 228 230 231 233 235 235 239 242 243 244 245 245 244 244 244 245 246 248 249 249 250 251 254 256 262 265 261 264 267 268 266 270
230 233 230 231 228 228 224 225 239 234 232 234 234 231 233 233 237 237 236 235 238 240 242 242 243 244 245 247 249 247 248 249 253 253 251 251 255 262 264 265 266 265 267 271 274
228 230 232 234 231 228 221 218 227 230 230 231 239 238 238 236 239 238 237 238 237 240 243 247 246 246 245 244 245 246 247 250 251 252 254 252 254 258 264 267 269 267 268 270 272
229 229 230 230 231 231 229 225 227 228 230 232 235 236 237 240 247 240 240 237 238 238 240 242 246 244 244 243 242 245 246 246 247 250 252 255 255 257 260 265 267 272 271 271 273
229 228 230 231 230 230 231 229 229 230 232 231 235 235 239 240 242 242 242 236 239 239 240 244 245 246 245 245 245 243 244 247 249 249 253 256 256 258 260 263 266 268 274 276 278
229 229 227 229 230 232 231 234 236 237 235 236 237 235 238 236 232 222 233 238 240 242 242 243 247 248 249 247 247 248 247 247 248 250 251 252 253 258 261 263 264 268 270 274 278
232 232 229 228 231 232 231 232 235 236 236 237 237 237 239 241 240 235 236 234 237 239 239 243 248 250 251 254 252 251 252 255 255 252 254 256 259 258 259 261 263 266 269 273 275
234 233 231 231 232 232 232 233 234 234 235 236 238 238 238 240 243 241 241 241 245 246 245 244 245 244 245 249 251 250 249 252 252 253 258 259 261 252 258 261 261 263 264 264 269
238 236 234 234 234 235 235 233 234 236 237 236 236 239 240 241 241 244 246 245 245 245 245 243 246 245 238 241 242 247 247 250 250 254 253 258 257 258 258 261 263 262 264 265 267
238 239 238 237 235 235 234 236 236 237 238 239 241 239 240 242 244 244 244 243 244 246 244 245 243 244 244 241 249 249 248 245 248 251 253 256 254 261 257 257 259 260 263 262 262
239 240 240 238 237 237 237 239 240 241 240 241 239 243 243 243 243 245 247 248 249 248 250 249 248 249 249 250 254 255 245 252 254 250 250 253 254 253 254 255 259 261 259 260 263
Height
5752 5758 5764 5770 5775 5780 5785 5790 5794 5799 5802 5806 5811 5813 5817 5823 5827 5830 5834 5837 5840 5843 5844 5848 5850 5852 5854 5856 5857 5859 5862 5864 5865 5865 5865 5865 5863 5863 5863 5863 5863 5864 5864 5864 5864
5747 5753 5758 5765 5771 5776 5782 5787 5791 5796 5800 5804 5808 5810 5815 5821 5824 5828 5831 5834 5837 5840 5842 5846 5848 5850 5852 5854 5855 5857 5860 5861 5864 5864 5864 5864 5864 5862 5863 5863 5863 5863 5863 5863 5863
5742 5748 5753 5759 5765 5772 5778 5783 5788 5792 5796 5801 5804 5807 5812 5817 5820 5824 5828 5831 5834 5837 5839 5842 5845 5847 5850 5852 5853 5855 5858 5859 5862 5863 5862 5863 5863 5862 5862 5862 5862 5862 5862 5862 5862
5737 5744 5750 5755 5760 5766 5772 5778 5784 5788 5792 5796 5801 5805 5808 5812 5818 5820 5824 5828 5829 5833 5836 5839 5841 5844 5847 5849 5851 5852 5855 5856 5859 5861 5861 5861 5862 5862 5861 5861 5861 5861 5861 5861 5861
5732 5738 5744 5750 5755 5761 5766 5772 5778 5783 5787 5792 5797 5800 5804 5809 5813 5816 5820 5823 5825 5828 5832 5834 5838 5840 5843 5846 5847 5849 5852 5854 5856 5858 5859 5859 5859 5860 5859 5860 5859 5860 5859 5860 5860
5725 5731 5736 5744 5750 5755 5761 5767 5772 5778 5783 5787 5791 5795 5800 5806 5808 5811 5815 5819 5821 5824 5827 5830 5833 5836 5839 5841 5843 5847 5848 5850 5853 5855 5856 5856 5857 5858 5856 5857 5857 5858 5858 5858 5858
5719 5725 5731 5736 5741 5748 5754 5760 5766 5772 5778 5782 5787 5791 5796 5801 5804 5807 5810 5814 5817 5819 5823 5826 5829 5831 5835 5836 5839 5842 5845 5846 5849 5851 5853 5853 5854 5855 5855 5855 5855 5856 5856 5856 5856
5712 5718 5724 5729 5735 5741 5748 5754 5759 5766 5771 5776 5781 5786 5790 5795 5798 5802 5805 5809 5813 5815 5818 5821 5824 5827 5829 5832 5834 5837 5840 5842 5845 5847 5849 5849 5852 5851 5853 5853 5853 5854 5854 5854 5855
5703 5710 5716 5722 5728 5733 5740 5746 5752 5758 5764 5769 5774 5779 5784 5789 5793 5796 5800 5804 5807 5810 5813 5816 5819 5822 5824 5827 5830 5832 5836 5838 5840 5842 5844 5845 5847 5847 5850 5850 5850 5851 5852 5852 5852
5696 5701 5708 5714 5720 5726 5732 5737 5743 5750 5756 5761 5767 5773 5778 5782 5786 5790 5794 5798 5802 5804 5808 5811 5813 5816 5819 5822 5827 5826 5830 5833 5835 5837 5838 5840 5843 5843 5846 5847 5848 5848 5849 5849 5849
5689 5693 5700 5707 5712 5717 5726 5731 5737 5743 5747 5754 5760 5765 5771 5775 5779 5785 5788 5791 5795 5799 5802 5805 5807 5811 5815 5816 5817 5821 5824 5828 5830 5831 5832 5835 5838 5840 5841 5844 5844 5845 5846 5847 5846
5680 5686 5691 5698 5705 5710 5716 5722 5728 5735 5739 5744 5750 5756 5762 5766 5771 5776 5780 5784 5787 5791 5795 5799 5801 5805 5807 5810 5811 5815 5819 5823 5824 5825 5826 5828 5833 5835 5836 5839 5840 5841 5842 5842 5842
5673 5679 5683 5689 5696 5702 5707 5714 5719 5725 5729 5735 5740 5746 5752 5758 5763 5768 5772 5775 5779 5783 5786 5790 5794 5797 5801 5802 5805 5809 5813 5816 5817 5818 5819 5822 5825 5828 5831 5834 5834 5836 5837 5837 5837
5666 5671 5677 5681 5690 5695 5701 5706 5710 5715 5719 5725 5730 5736 5743 5749 5755 5759 5764 5768 5771 5775 5778 5781 5785 5790 5793 5796 5799 5802 5805 5808 5809 5810 5812 5816 5811 5822 5826 5828 5829 5831 5830 5831 5830
5658 5663 5668 5675 5681 5686 5693 5696 5701 5706 5708 5715 5722 5729 5735 5739 5748 5750 5755 5758 5762 5765 5770 5775 5778 5782 5785 5789 5790 5793 5797 5799 5801 5803 5804 5808 5804 5811 5820 5821 5825 5825 5824 5824 5824
5650 5655 5660 5664 5672 5677 5682 5687 5693 5695 5693 5704 5712 5717 5723 5729 5734 5740 5743 5748 5753 5756 5760 5763 5768 5771 5776 5780 5781 5785 5788 5790 5792 5794 5795 5799 5800 5798 5812 5814 5819 5818 5819 5818 5817
5639 5644 5649 5656 5663 5667 5672 5678 5682 5681 5693 5696 5703 5709 5713 5718 5722 5727 5734 5737 5742 5747 5752 5754 5758 5762 5767 5771 5773 5775 5778 5780 5783 5784 5789 5788 5790 5791 5797 5806 5808 5810 5810 5810 5809
5627 5632 5638 5646 5651 5657 5663 5668 5665 5679 5683 5686 5692 5699 5703 5709 5712 5717 5720 5726 5732 5736 5739 5741 5745 5751 5757 5762 5764 5766 5768 5771 5770 5772 5780 5777 5781 5787 5787 5794 5798 5800 5800 5800 5799
5616 5621 5626 5633 5640 5645 5651 5652 5658 5666 5673 5677 5681 5687 5693 5698 5702 5705 5710 5716 5720 5725 5728 5730 5732 5739 5745 5748 5750 5754 5756 5764 5758 5761 5762 5769 5777 5779 5781 5784 5782 5789 5790 5788 5788
5603 5609 5615 5621 5627 5631 5633 5644 5652 5656 5662 5667 5671 5675 5681 5687 5691 5695 5699 5706 5709 5714 5716 5719 5719 5725 5730 5734 5737 5739 5746 5745 5745 5748 5748 5759 5765 5768 5774 5774 5776 5773 5774 5776 5776
5590 5594 5602 5608 5613 5616 5623 5634 5641 5647 5652 5657 5660 5665 5671 5676 5682 5684 5687 5694 5698 5702 5704 5708 5709 5713 5716 5720 5725 5729 5729 5732 5734 5737 5737 5744 5750 5762 5764 5763 5765 5765 5760 5760 5759
5579 5583 5589 5594 5597 5605 5615 5622 5627 5633 5640 5645 5650 5657 5660 5663 5670 5673 5679 5682 5686 5688 5692 5695 5694 5700 5704 5708 5711 5714 5719 5720 5718 5725 5722 5728 5738 5752 5753 5754 5752 5752 5752 5751 5747
5568 5574 5577 5580 5585 5595 5603 5608 5611 5620 5626 5631 5638 5644 5649 5652 5656 5663 5668 5672 5674 5677 5680 5682 5684 5688 5691 5697 5699 5701 5707 5709 5711 5709 5708 5713 5728 5745 5740 5739 5740 5741 5741 5739 5736
5558 5561 5565 5569 5576 5583 5589 5593 5598 5605 5611 5617 5622 5626 5633 5638 5642 5647 5652 5655 5661 5664 5667 5670 5672 5675 5680 5684 5683 5687 5691 5693 5694 5692 5702 5699 5713 5729 5728 5726 5729 5729 5728 5724 5724
5541 5549 5554 5560 5568 5573 5575 5583 5587 5592 5598 5603 5608 5615 5619 5621 5628 5635 5639 5642 5646 5651 5654 5654 5658 5661 5668 5670 5669 5671 5673 5677 5677 5684 5679 5695 5691 5710 5717 5714 5713 5711 5713 5716 5713
5527 5536 5543 5550 5556 5558 5562 5571 5577 5582 5586 5592 5597 5602 5603 5607 5617 5620 5620 5628 5633 5635 5638 5638 5643 5646 5651 5659 5655 5653 5658 5663 5668 5671 5667 5675 5675 5696 5698 5698 5696 5697 5697 5696 5695
5513 5522 5527 5534 5540 5542 5553 5564 5566 5568 5573 5579 5584 5585 5591 5596 5597 5604 5609 5615 5619 5620 5623 5626 5628 5630 5632 5641 5636 5632 5653 5656 5657 5657 5658 5653 5669 5676 5677 5681 5683 5683 5678 5675 5677